Home > Time Zones > World Clock > Weather > Macau > Macau > Past weeks

Flag for Macau Weather past 2 weeks in Macau, Macau

82 °F

Passing clouds.

Feels Like: 91 °F
Forecast: 80 / 84 °F
Wind: 12 mph from Southeast

Location: Taipa

Current Time: Oct 6, 2015 at 11:30:45 PM

Latest Report: Oct 6, 2015 at 10:30 PM

Visibility: N/A

Pressure: 29.92 "Hg

Humidity: 84%

Dew point: 77 °F

Location of MacauLocation

Historic Weather in Macau — Graph


Macau temperature yesterday

Maximum temperature yesterday: 84 °F (at 11:00 AM)
Minimum temperature yesterday: 77 °F (at 2:00 PM)
Average temperature yesterday: 81 °F

Past Weeks' High & Low Weather Summary

High90 °F (Sep 26, 12:00 PM)94% (Sep 22, 8:30 AM)30.01 "Hg (Sep 22, 8:30 AM)
Low77 °F (Sep 22, 8:30 AM)42% (Sep 29, 6:00 AM)29.59 "Hg (Sep 25, 3:00 PM)
Average83 °F78%29.80 "Hg
* Reported Sep 21 10:00 PM — Oct 6 10:00 PM, Macau, Weather by CustomWeather, © 2015

Note: Actual official high and low records may vary slightly from our data, if they occured in-between our weather recording intervals... More about our weather records


Macau weather history for previous 24 hours

Time TempWeatherWind HumidityBarometerVisibility
10:00 PM
Tue, Oct 6
82 °FPassing clouds.16 mph84%29.92 "HgN/A
9:30 PM81 °FPassing clouds.14 mph89%29.92 "HgN/A
9:00 PM81 °FPassing clouds.10 mph89%29.92 "HgN/A
8:30 PM81 °FSprinkles. Passing clouds.13 mph89%29.92 "HgN/A
8:00 PM79 °FRain showers. Passing clouds.6 mph94%29.92 "Hg6 mi
7:30 PM79 °FRain showers. Passing clouds.9 mph89%29.89 "Hg6 mi
7:00 PM79 °FRain showers. Passing clouds.14 mph89%29.89 "Hg6 mi
6:30 PM79 °FPassing clouds.13 mph89%29.89 "HgN/A
6:00 PM81 °FSprinkles. Scattered clouds.8 mph89%29.89 "Hg6 mi
5:30 PM81 °FSprinkles. Scattered clouds.13 mph89%29.89 "Hg6 mi
5:00 PM81 °FScattered clouds.10 mph84%29.89 "HgN/A
4:30 PM81 °FScattered clouds.12 mph89%29.89 "Hg5 mi
4:00 PM82 °FScattered clouds.9 mph84%29.89 "Hg5 mi
3:30 PM81 °FScattered clouds.2 mph84%29.89 "Hg6 mi
3:00 PM79 °FRain showers. Scattered clouds.7 mph84%29.89 "Hg4 mi
2:30 PM81 °FScattered showers. Scattered clouds.16 mph79%29.92 "Hg6 mi
2:00 PM81 °FScattered clouds.9 mph89%29.92 "Hg5 mi
1:30 PM81 °FSprinkles. Scattered clouds.10 mph84%29.92 "Hg5 mi
1:00 PM81 °FScattered clouds.14 mph89%29.95 "HgN/A
12:30 PM82 °FScattered clouds.13 mph84%29.95 "HgN/A
12:00 PM84 °FScattered clouds.12 mph79%29.95 "HgN/A
11:30 AM82 °FScattered clouds.10 mph84%29.95 "HgN/A
11:00 AM82 °FScattered clouds.13 mph89%29.98 "HgN/A
10:30 AM84 °FScattered clouds.12 mph84%29.98 "HgN/A
10:00 AM82 °FScattered clouds.14 mph84%29.98 "HgN/A
9:30 AM84 °FScattered clouds.14 mph84%29.98 "HgN/A
9:00 AM82 °FScattered clouds.16 mph84%29.98 "HgN/A
8:30 AM82 °FScattered clouds.13 mph84%29.95 "HgN/A
8:00 AM82 °FScattered clouds.13 mph84%29.95 "HgN/A
7:30 AM82 °FScattered clouds.14 mph84%29.95 "HgN/A
7:00 AM82 °FScattered clouds.15 mph84%29.92 "HgN/A
6:30 AM82 °FScattered clouds.10 mph84%29.92 "HgN/A
6:00 AM82 °FPassing clouds.13 mph84%29.92 "HgN/A
5:00 AM81 °FPassing clouds.13 mph89%29.92 "HgN/A
4:30 AM81 °FPassing clouds.15 mph89%29.92 "HgN/A
4:00 AM82 °FPassing clouds.14 mph84%29.92 "HgN/A
3:30 AM82 °FPassing clouds.13 mph84%29.92 "HgN/A
3:00 AM82 °FPassing clouds.15 mph84%29.92 "HgN/A
2:30 AM81 °FPassing clouds.13 mph89%29.92 "HgN/A
2:00 AM81 °FPassing clouds.13 mph89%29.92 "HgN/A
1:30 AM81 °FPassing clouds.14 mph89%29.95 "HgN/A
1:00 AM82 °FPassing clouds.16 mph84%29.95 "HgN/A
12:30 AM82 °FPassing clouds.15 mph84%29.95 "HgN/A
12:00 AM81 °FPassing clouds.15 mph89%29.98 "HgN/A
11:30 PM
Mon, Oct 5
81 °FPassing clouds.15 mph89%29.98 "HgN/A
11:00 PM81 °FRain showers. Passing clouds.14 mph89%29.98 "Hg4 mi
Weather by CustomWeather, © 2015

See weather overviewHow to use our weather pages